Tracking 23726 objects as of 24-Sep-2021
HD Live streaming from Space Station
objects crossing your sky now

TDRS 10

Track TDRS 10 now!
TDRS 10 is classified as:


NORAD ID: 27566
Int'l Code: 2002-055A
Perigee: 35,770.0 km
Apogee: 35,818.0 km
Inclination: 7.7 °
Period: 1,436.1 minutes
Semi major axis: 42165 km
RCS: 5.0118 m2 (large)
Launch date: December 5, 2002
Source: United States (US)
Launch site: AIR FORCE EASTERN TEST RANGE (AFETR)

Tracking and communications with space shuttle, other missions.
aabbcc
Your satellite tracking list
Your tracking list is empty




NASA's NSSDC Master Catalog

Two Line Element Set (TLE):
1 27566U 02055A   21266.77251337  .00000085  00000-0  00000-0 0  9993
2 27566   7.7186  51.3697 0005696 339.1695  79.2486  1.00270774 68918
Source of the keplerian elements: AFSPC